• En España
  • Lista de países
  • Para 7 días
  • Temperatura del agua
  • Mapa Satelital
  • El tiempo en el mapa
  • Informadores
  • user-avatar
    Iniciar sesión

    Tiempo cada hora Zhlobin

    Hoy, 20 Octubre, Sábado

    Tiempo Temperatura Precipitaciones Viento Presión Humedad
    00:00 +10°C° 0 mm 2 mps 752 mmHg 91%
    01:00 +10°C° 0 mm 2 mps 752 mmHg 93%
    02:00 +10°C° 0 mm 2 mps 752 mmHg 95%
    03:00 +9°C° 0 mm 2 mps 752 mmHg 95%
    04:00 +9°C° 0 mm 2 mps 753 mmHg 96%
    05:00 +8°C° 0 mm 2 mps 753 mmHg 96%
    06:00 +9°C° 0 mm 2 mps 753 mmHg 93%
    07:00 +9°C° 0 mm 3 mps 753 mmHg 91%
    08:00 +9°C° 0 mm 3 mps 753 mmHg 89%
    09:00 +10°C° 0 mm 3 mps 753 mmHg 82%
    10:00 +12°C° 0 mm 3 mps 753 mmHg 75%
    11:00 +13°C° 0 mm 3 mps 753 mmHg 68%
    12:00 +14°C° 0 mm 2 mps 753 mmHg 65%
    13:00 +15°C° 0 mm 2 mps 753 mmHg 62%
    14:00 +15°C° 0 mm 2 mps 753 mmHg 59%
    15:00 +14°C° 0 mm 2 mps 753 mmHg 62%
    16:00 +13°C° 0 mm 2 mps 753 mmHg 66%
    17:00 +12°C° 0 mm 2 mps 753 mmHg 69%
    18:00 +10°C° 0 mm 2 mps 753 mmHg 71%
    19:00 +9°C° 0 mm 2 mps 753 mmHg 72%
    20:00 +8°C° 0 mm 2 mps 754 mmHg 73%
    21:00 +8°C° 0 mm 2 mps 754 mmHg 74%
    22:00 +7°C° 0 mm 2 mps 754 mmHg 75%
    23:00 +7°C° 0 mm 2 mps 754 mmHg 76%

    Mañana, 21 Octubre, Domingo

    Tiempo Temperatura Precipitaciones Viento Presión Humedad
    00:00 +6°C° 0 mm 2 mps 754 mmHg 77%
    01:00 +6°C° 0 mm 2 mps 754 mmHg 79%
    02:00 +6°C° 0 mm 2 mps 754 mmHg 80%
    03:00 +5°C° 0 mm 2 mps 754 mmHg 81%
    04:00 +5°C° 0 mm 2 mps 754 mmHg 83%
    05:00 +5°C° 0 mm 2 mps 754 mmHg 84%
    06:00 +5°C° 0 mm 2 mps 755 mmHg 82%
    07:00 +4°C° 0 mm 3 mps 755 mmHg 80%
    08:00 +4°C° 0 mm 3 mps 755 mmHg 79%
    09:00 +7°C° 0 mm 3 mps 755 mmHg 71%
    10:00 +9°C° 0 mm 3 mps 756 mmHg 64%
    11:00 +10°C° 0 mm 3 mps 756 mmHg 57%
    12:00 +11°C° 0 mm 3 mps 756 mmHg 54%
    13:00 +11°C° 0 mm 3 mps 756 mmHg 52%
    14:00 +12°C° 0 mm 3 mps 756 mmHg 49%
    15:00 +10°C° 0 mm 3 mps 756 mmHg 54%
    16:00 +9°C° 0 mm 3 mps 756 mmHg 60%
    17:00 +8°C° 0 mm 2 mps 756 mmHg 65%
    18:00 +7°C° 0 mm 2 mps 756 mmHg 69%
    19:00 +6°C° 0 mm 2 mps 757 mmHg 72%
    20:00 +6°C° 0 mm 2 mps 757 mmHg 76%
    21:00 +5°C° 0 mm 2 mps 757 mmHg 79%
    22:00 +5°C° 0 mm 2 mps 757 mmHg 82%
    23:00 +4°C° 0 mm 2 mps 757 mmHg 85%

    Pasado mañana, 22 Octubre, Lunes

    Tiempo Temperatura Precipitaciones Viento Presión Humedad
    00:00 +4°C° 0 mm 2 mps 757 mmHg 87%
    01:00 +4°C° 0 mm 2 mps 757 mmHg 89%
    02:00 +3°C° 0 mm 2 mps 757 mmHg 90%
    03:00 +3°C° 0 mm 2 mps 757 mmHg 91%
    04:00 +4°C° 0 mm 1 mps 757 mmHg 92%
    05:00 +4°C° 0 mm 1 mps 757 mmHg 92%
    06:00 +4°C° 0 mm 1 mps 757 mmHg 90%
    07:00 +4°C° 0 mm 1 mps 757 mmHg 89%
    08:00 +5°C° 0 mm 1 mps 757 mmHg 87%
    09:00 +6°C° 0 mm 1 mps 757 mmHg 78%
    10:00 +8°C° 0 mm 1 mps 756 mmHg 69%
    11:00 +10°C° 0 mm 1 mps 756 mmHg 60%
    12:00 +11°C° 0 mm 1 mps 755 mmHg 56%
    13:00 +12°C° 0 mm 1 mps 755 mmHg 52%
    14:00 +12°C° 0 mm 1 mps 754 mmHg 49%
    15:00 +11°C° 0 mm 1 mps 754 mmHg 53%
    16:00 +9°C° 0 mm 1 mps 754 mmHg 58%
    17:00 +8°C° 0 mm 1 mps 753 mmHg 62%
    18:00 +7°C° 0 mm 1 mps 753 mmHg 64%
    19:00 +7°C° 0 mm 1 mps 753 mmHg 67%
    20:00 +6°C° 0 mm 1 mps 753 mmHg 69%
    21:00 +6°C° 0 mm 1 mps 752 mmHg 70%
    22:00 +5°C° 0 mm 1 mps 752 mmHg 71%
    23:00 +5°C° 0 mm 1 mps 752 mmHg 72%

    23 Octubre, Martes

    Tiempo Temperatura Precipitaciones Viento Presión Humedad
    00:00 +5°C° 0 mm 1 mps 751 mmHg 73%
    01:00 +3°C° 0 mm 2 mps 751 mmHg 75%
    02:00 +3°C° 0 mm 2 mps 750 mmHg 76%
    03:00 +3°C° 0 mm 2 mps 750 mmHg 78%
    04:00 +3°C° 0 mm 2 mps 749 mmHg 81%
    05:00 +2°C° 0 mm 2 mps 749 mmHg 83%
    06:00 +3°C° 0 mm 2 mps 749 mmHg 83%
    07:00 +3°C° 0 mm 2 mps 748 mmHg 83%
    08:00 +4°C° 0 mm 2 mps 748 mmHg 83%
    09:00 +4°C° 0 mm 3 mps 748 mmHg 78%
    10:00 +7°C° 0 mm 3 mps 748 mmHg 73%
    11:00 +9°C° 0 mm 3 mps 748 mmHg 68%
    12:00 +8°C° 0.1 mm 4 mps 747 mmHg 70%
    13:00 +7°C° 0.1 mm 4 mps 747 mmHg 72%
    14:00 +7°C° 0.1 mm 4 mps 747 mmHg 75%
    15:00 +8°C° 0.2 mm 3 mps 746 mmHg 79%
    16:00 +7°C° 0.2 mm 3 mps 746 mmHg 83%
    17:00 +5°C° 0.2 mm 3 mps 746 mmHg 87%
    18:00 +5°C° 0 mm 3 mps 746 mmHg 87%
    19:00 +4°C° 0 mm 3 mps 746 mmHg 88%
    20:00 +4°C° 0 mm 3 mps 746 mmHg 89%
    21:00 +3°C° 0 mm 3 mps 745 mmHg 87%
    22:00 +3°C° 0 mm 3 mps 745 mmHg 85%
    23:00 +3°C° 0 mm 3 mps 744 mmHg 83%

    24 Octubre, Miércoles

    Tiempo Temperatura Precipitaciones Viento Presión Humedad
    00:00 +3°C° 0 mm 4 mps 743 mmHg 83%
    01:00 +1°C° 0 mm 4 mps 742 mmHg 83%
    02:00 +1°C° 0 mm 5 mps 742 mmHg 83%
    03:00 +1°C° 0 mm 5 mps 741 mmHg 84%
    04:00 +1°C° 0 mm 5 mps 740 mmHg 84%
    05:00 +1°C° 0 mm 5 mps 739 mmHg 85%
    06:00 +2°C° 0.1 mm 6 mps 738 mmHg 83%
    07:00 +2°C° 0.1 mm 6 mps 737 mmHg 81%
    08:00 +2°C° 0.1 mm 7 mps 736 mmHg 78%
    09:00 +3°C° 0.4 mm 7 mps 735 mmHg 77%
    10:00 +3°C° 0.4 mm 7 mps 734 mmHg 76%
    11:00 +4°C° 0.4 mm 7 mps 733 mmHg 75%
    12:00 +4°C° 1.1 mm 6 mps 732 mmHg 77%
    13:00 +4°C° 1.1 mm 6 mps 731 mmHg 79%
    14:00 +4°C° 1.1 mm 6 mps 730 mmHg 80%
    15:00 +5°C° 0.7 mm 5 mps 730 mmHg 83%
    16:00 +5°C° 0.7 mm 5 mps 730 mmHg 86%
    17:00 +4°C° 0.7 mm 4 mps 730 mmHg 89%
    18:00 +3°C° 0.1 mm 5 mps 730 mmHg 84%
    19:00 +3°C° 0.1 mm 6 mps 731 mmHg 80%
    20:00 +2°C° 0.1 mm 7 mps 731 mmHg 75%
    21:00 +2°C° 0 mm 7 mps 732 mmHg 75%
    22:00 0°C° 0 mm 7 mps 732 mmHg 75%
    23:00 0°C° 0 mm 7 mps 733 mmHg 74%

    25 Octubre, Jueves

    Tiempo Temperatura Precipitaciones Viento Presión Humedad
    00:00 0°C° 0 mm 7 mps 734 mmHg 76%
    01:00 -1°C° 0 mm 6 mps 734 mmHg 78%
    02:00 -1°C° 0 mm 6 mps 735 mmHg 79%
    03:00 -1°C° 0 mm 6 mps 735 mmHg 82%
    04:00 -2°C° 0 mm 6 mps 736 mmHg 84%
    05:00 -2°C° 0 mm 6 mps 736 mmHg 87%
    06:00 -2°C° 0 mm 6 mps 736 mmHg 86%
    07:00 -2°C° 0 mm 6 mps 737 mmHg 84%
    08:00 -2°C° 0 mm 6 mps 737 mmHg 83%
    09:00 +1°C° 0 mm 6 mps 738 mmHg 79%
    10:00 +2°C° 0 mm 7 mps 738 mmHg 74%
    11:00 +3°C° 0 mm 7 mps 738 mmHg 70%
    12:00 +3°C° 0 mm 7 mps 738 mmHg 68%
    13:00 +4°C° 0 mm 7 mps 738 mmHg 67%
    14:00 +4°C° 0 mm 7 mps 738 mmHg 65%
    15:00 +4°C° 0.1 mm 6 mps 739 mmHg 67%
    16:00 +3°C° 0.1 mm 6 mps 739 mmHg 68%
    17:00 +3°C° 0.1 mm 5 mps 739 mmHg 69%
    18:00 +3°C° 0 mm 5 mps 739 mmHg 70%
    19:00 +2°C° 0 mm 5 mps 740 mmHg 71%
    20:00 +2°C° 0 mm 5 mps 740 mmHg 72%
    21:00 +1°C° 0 mm 4 mps 740 mmHg 75%
    22:00 +1°C° 0 mm 4 mps 740 mmHg 77%
    23:00 0°C° 0 mm 4 mps 740 mmHg 80%
    Mostrar más